sat.trackr.live / text

‹ back to catalog

STARLINK-1523

NORAD 46028 · 2020-055B

PAYLOAD ACTIVE UNKNOWN

§ Identity

Operator
Country
US
Launch date
2020-08-07
Launch site
AFETR
Launch vehicle
Mass (kg)
RCS (m²)

Purposes: comms

External: N2YO · Heavens-Above · Gunter

§ Orbital elements

Epoch: 2026-09-19T18:21:06.268032Z

Period
93.63 min
Inclination
53.1583°
Eccentricity
0.0001309
Mean motion
15.37912743 rev/d
Perigee alt
451.4 km
Apogee alt
453.2 km
Semi-major
6,830.4 km
B*
7.7543e-4
RAAN
302.3751°
Arg perigee
343.0863°
Mean anomaly
17.0097°
Rev number
33,865

§ Raw data

STARLINK-15231 46028U 20055B   26262.76465588  .00029052  00000+0  77543-3 0  99952 46028  53.1583 302.3751 0001309 343.0863  17.0097 15.37912743338659

JSON: /api/v1/satellites/46028 · /tle

For live sub-satellite position, see the globe view (requires WebGL).

§ Visibility from observer

Set your observer location to see the next 7 days of passes ≥ 10°. The values pass through the URL so the page stays shareable.

No JS? Fill the form by hand. The geolocation button needs JavaScript.